Location: Izdebno
(52.6670°N, 16.2170°E)
Time: 04:26:21
(UTC+02:00)

A-11 Canister half - Pass Details

Date: 16 February 2023
Orbit: 1526 x 1682 km, 47.3° (Epoch: 24 March)

Event Time Altitude Azimuth Distance (km) Brightness Sun altitude
Rises 09:27:37 0° 285° (WNW) 4,685 11.1 16.3°
Reaches altitude 10° 09:31:41 10° 270° (W) 3,710 10.7 16.7°
Maximum altitude 09:37:49 20° 228° (SW) 3,019 10.7 17.3°
Drops below altitude 10° 09:44:02 10° 186° (S) 3,758 11.9 17.9°
Sets 09:48:13 0° 171° (S) 4,766 12.7 18.3°
